Tracking 28790 objects as of 19-Apr-2024
HD Live streaming from Space Station
objects crossing your sky now

NOAA 16 DEB

Track NOAA 16 DEB now!
10-day predictions


NORAD ID: 41085
Int'l Code: 2000-055AU
Perigee: 818.7 km
Apogee: 847.9 km
Inclination: 98.7 °
Period: 101.4 minutes
Semi major axis: 7204 km
RCS: Unknown
Launch date: September 21, 2000
Source: United States (US)
Launch site: AIR FORCE WESTERN TEST RANGE (AFWTR)

Note: This is SATELLITE DEBRIS
Your satellite tracking list
Your tracking list is empty




NASA's NSSDC Master Catalog

Two Line Element Set (TLE):
1 41085U 00055AU  24109.46958579  .00003738  00000-0  17819-2 0  9996
2 41085  98.7323 196.8138 0020207  12.2065 347.9597 14.19761086434014
Source of the keplerian elements: AFSPC